• In Belarus
  • List of Countries
  • For 7 days
  • Water Temperature
  • Satellite Maps
  • Weather Map
  • Weather Widgets
  • user-avatar
    Login

    Hourly Weather Kvandzhu

    Today, 21 August, Tuesday

    Time Temperature Precipitation Wind Pressure Humidity
    00:00 +25°C° 0 mm 2 mps 749 mmHg 93%
    01:00 +25°C° 0 mm 2 mps 749 mmHg 94%
    02:00 +25°C° 0 mm 2 mps 749 mmHg 95%
    03:00 +25°C° 0 mm 2 mps 749 mmHg 95%
    04:00 +25°C° 0 mm 2 mps 749 mmHg 95%
    05:00 +25°C° 0 mm 2 mps 749 mmHg 95%
    06:00 +26°C° 0 mm 2 mps 749 mmHg 86%
    07:00 +28°C° 0 mm 2 mps 749 mmHg 76%
    08:00 +30°C° 0 mm 2 mps 750 mmHg 67%
    09:00 +32°C° 0 mm 2 mps 750 mmHg 60%
    10:00 +34°C° 0 mm 2 mps 750 mmHg 54%
    11:00 +36°C° 0 mm 2 mps 750 mmHg 48%
    12:00 +36°C° 0 mm 2 mps 749 mmHg 47%
    13:00 +36°C° 0 mm 2 mps 749 mmHg 47%
    14:00 +37°C° 0 mm 2 mps 749 mmHg 47%
    15:00 +35°C° 0 mm 2 mps 748 mmHg 53%
    16:00 +34°C° 0 mm 2 mps 748 mmHg 59%
    17:00 +32°C° 0 mm 2 mps 748 mmHg 66%
    18:00 +30°C° 0 mm 2 mps 748 mmHg 72%
    19:00 +29°C° 0 mm 1 mps 748 mmHg 78%
    20:00 +27°C° 0 mm 1 mps 748 mmHg 85%
    21:00 +27°C° 0 mm 1 mps 749 mmHg 86%
    22:00 +27°C° 0 mm 1 mps 749 mmHg 87%
    23:00 +26°C° 0 mm 2 mps 749 mmHg 88%

    Tomorrow, 22 August, Wednesday

    Time Temperature Precipitation Wind Pressure Humidity
    00:00 +26°C° 0 mm 2 mps 749 mmHg 88%
    01:00 +26°C° 0 mm 2 mps 749 mmHg 89%
    02:00 +26°C° 0 mm 2 mps 748 mmHg 89%
    03:00 +26°C° 0 mm 2 mps 748 mmHg 90%
    04:00 +26°C° 0 mm 2 mps 748 mmHg 90%
    05:00 +26°C° 0 mm 2 mps 748 mmHg 91%
    06:00 +28°C° 0 mm 3 mps 749 mmHg 84%
    07:00 +30°C° 0 mm 3 mps 749 mmHg 77%
    08:00 +33°C° 0 mm 4 mps 749 mmHg 71%
    09:00 +34°C° 0 mm 4 mps 749 mmHg 64%
    10:00 +35°C° 0 mm 5 mps 749 mmHg 58%
    11:00 +37°C° 0 mm 5 mps 749 mmHg 52%
    12:00 +37°C° 0 mm 5 mps 749 mmHg 51%
    13:00 +37°C° 0 mm 5 mps 748 mmHg 50%
    14:00 +37°C° 0 mm 5 mps 748 mmHg 49%
    15:00 +36°C° 0 mm 5 mps 748 mmHg 56%
    16:00 +34°C° 0 mm 5 mps 748 mmHg 63%
    17:00 +33°C° 0 mm 5 mps 747 mmHg 69%
    18:00 +32°C° 0 mm 5 mps 747 mmHg 71%
    19:00 +30°C° 0 mm 6 mps 747 mmHg 73%
    20:00 +30°C° 0 mm 6 mps 747 mmHg 74%
    21:00 +29°C° 0.3 mm 6 mps 747 mmHg 77%
    22:00 +29°C° 0.3 mm 6 mps 747 mmHg 80%
    23:00 +29°C° 0.3 mm 6 mps 747 mmHg 83%

    Day after tomorrow, 23 August, Thursday

    Time Temperature Precipitation Wind Pressure Humidity
    00:00 +28°C° 0.4 mm 7 mps 746 mmHg 84%
    01:00 +28°C° 0.4 mm 7 mps 745 mmHg 86%
    02:00 +28°C° 0.4 mm 7 mps 744 mmHg 87%
    03:00 +28°C° 0.5 mm 7 mps 744 mmHg 86%
    04:00 +28°C° 0.5 mm 8 mps 744 mmHg 86%
    05:00 +28°C° 0.5 mm 8 mps 743 mmHg 86%
    06:00 +28°C° 0.3 mm 8 mps 743 mmHg 83%
    07:00 +29°C° 0.3 mm 9 mps 742 mmHg 81%
    08:00 +29°C° 0.3 mm 9 mps 742 mmHg 79%
    09:00 +31°C° 0.8 mm 10 mps 741 mmHg 77%
    10:00 +31°C° 0.8 mm 10 mps 740 mmHg 75%
    11:00 +32°C° 0.8 mm 11 mps 739 mmHg 74%
    12:00 +31°C° 1.8 mm 11 mps 738 mmHg 75%
    13:00 +31°C° 1.8 mm 11 mps 737 mmHg 77%
    14:00 +31°C° 1.8 mm 11 mps 735 mmHg 79%
    15:00 +31°C° 1.4 mm 12 mps 735 mmHg 79%
    16:00 +29°C° 1.4 mm 12 mps 734 mmHg 80%
    17:00 +29°C° 1.4 mm 13 mps 733 mmHg 81%
    18:00 +29°C° 4.6 mm 13 mps 732 mmHg 82%
    19:00 +29°C° 4.6 mm 14 mps 732 mmHg 83%
    20:00 +29°C° 4.6 mm 14 mps 732 mmHg 84%
    21:00 +29°C° 17.4 mm 15 mps 731 mmHg 86%
    22:00 +28°C° 17.4 mm 16 mps 730 mmHg 88%
    23:00 +28°C° 17.4 mm 17 mps 730 mmHg 90%

    24 August, Friday

    Time Temperature Precipitation Wind Pressure Humidity
    00:00 +28°C° 12.3 mm 16 mps 729 mmHg 91%
    01:00 +28°C° 12.3 mm 15 mps 729 mmHg 91%
    02:00 +28°C° 12.3 mm 14 mps 728 mmHg 91%
    03:00 +28°C° 1.7 mm 14 mps 729 mmHg 90%
    04:00 +28°C° 1.7 mm 14 mps 729 mmHg 89%
    05:00 +28°C° 1.7 mm 14 mps 730 mmHg 87%
    06:00 +28°C° 0.5 mm 13 mps 732 mmHg 89%
    07:00 +28°C° 0.5 mm 12 mps 733 mmHg 90%
    08:00 +27°C° 0.5 mm 10 mps 735 mmHg 91%
    09:00 +28°C° 0.4 mm 9 mps 737 mmHg 90%
    10:00 +28°C° 0.4 mm 8 mps 738 mmHg 89%
    11:00 +28°C° 0.4 mm 7 mps 740 mmHg 88%
    12:00 +28°C° 0.2 mm 6 mps 740 mmHg 88%
    13:00 +29°C° 0.2 mm 6 mps 741 mmHg 87%
    14:00 +29°C° 0.2 mm 6 mps 742 mmHg 87%
    15:00 +29°C° 0.2 mm 5 mps 742 mmHg 87%
    16:00 +28°C° 0.2 mm 5 mps 743 mmHg 88%
    17:00 +28°C° 0.2 mm 4 mps 743 mmHg 88%
    18:00 +28°C° 0.1 mm 4 mps 744 mmHg 90%
    19:00 +27°C° 0.1 mm 3 mps 744 mmHg 93%
    20:00 +26°C° 0.1 mm 2 mps 745 mmHg 95%
    21:00 +26°C° 0.1 mm 2 mps 745 mmHg 95%
    22:00 +26°C° 0.1 mm 2 mps 746 mmHg 95%
    23:00 +26°C° 0.1 mm 2 mps 746 mmHg 95%

    25 August, Saturday

    Time Temperature Precipitation Wind Pressure Humidity
    00:00 +25°C° 0 mm 2 mps 746 mmHg 95%
    01:00 +25°C° 0 mm 2 mps 746 mmHg 94%
    02:00 +24°C° 0 mm 2 mps 746 mmHg 94%
    03:00 +24°C° 0 mm 2 mps 746 mmHg 94%
    04:00 +24°C° 0 mm 2 mps 746 mmHg 94%
    05:00 +24°C° 0 mm 2 mps 747 mmHg 94%
    06:00 +25°C° 0 mm 2 mps 747 mmHg 90%
    07:00 +26°C° 0 mm 2 mps 747 mmHg 86%
    08:00 +27°C° 0 mm 2 mps 748 mmHg 82%
    09:00 +28°C° 0 mm 3 mps 748 mmHg 76%
    10:00 +29°C° 0 mm 3 mps 748 mmHg 70%
    11:00 +30°C° 0 mm 3 mps 748 mmHg 65%
    12:00 +31°C° 0 mm 3 mps 748 mmHg 63%
    13:00 +31°C° 0 mm 3 mps 748 mmHg 61%
    14:00 +31°C° 0 mm 3 mps 747 mmHg 59%
    15:00 +31°C° 0 mm 3 mps 748 mmHg 63%
    16:00 +30°C° 0 mm 2 mps 748 mmHg 68%
    17:00 +29°C° 0 mm 2 mps 748 mmHg 72%
    18:00 +27°C° 0 mm 2 mps 748 mmHg 78%
    19:00 +26°C° 0 mm 2 mps 749 mmHg 83%
    20:00 +24°C° 0 mm 1 mps 749 mmHg 88%
    21:00 +24°C° 0 mm 1 mps 749 mmHg 89%
    22:00 +24°C° 0 mm 1 mps 750 mmHg 90%
    23:00 +23°C° 0 mm 1 mps 750 mmHg 91%

    26 August, Sunday

    Time Temperature Precipitation Wind Pressure Humidity
    00:00 +23°C° 0 mm 1 mps 750 mmHg 92%
    01:00 +23°C° 0 mm 1 mps 749 mmHg 92%
    02:00 +23°C° 0 mm 1 mps 749 mmHg 92%
    03:00 +23°C° 0.2 mm 1 mps 750 mmHg 92%
    04:00 +23°C° 0.2 mm 1 mps 750 mmHg 92%
    05:00 +23°C° 0.2 mm 1 mps 750 mmHg 92%
    06:00 +23°C° 0.3 mm 1 mps 750 mmHg 89%
    07:00 +24°C° 0.3 mm 1 mps 751 mmHg 87%
    08:00 +25°C° 0.3 mm 1 mps 751 mmHg 84%
    09:00 +25°C° 0.3 mm 1 mps 751 mmHg 85%
    10:00 +25°C° 0.3 mm 1 mps 751 mmHg 85%
    11:00 +25°C° 0.3 mm 1 mps 751 mmHg 85%
    12:00 +26°C° 0.2 mm 1 mps 751 mmHg 82%
    13:00 +27°C° 0.2 mm 1 mps 751 mmHg 78%
    14:00 +28°C° 0.2 mm 1 mps 750 mmHg 75%
    15:00 +28°C° 0.1 mm 1 mps 750 mmHg 76%
    16:00 +28°C° 0.1 mm 1 mps 751 mmHg 78%
    17:00 +28°C° 0.1 mm 1 mps 751 mmHg 79%
    18:00 +27°C° 0.8 mm 1 mps 751 mmHg 83%
    19:00 +26°C° 0.8 mm 1 mps 751 mmHg 87%
    20:00 +25°C° 0.8 mm 1 mps 752 mmHg 91%
    21:00 +25°C° 1.6 mm 1 mps 752 mmHg 92%
    22:00 +25°C° 1.6 mm 1 mps 752 mmHg 93%
    23:00 +25°C° 1.6 mm 1 mps 752 mmHg 95%
    Show more